Home > Weather > Longueuil > Past weeks

Flag for Canada Past Weather in Longueuil, Quebec, Canada — Yesterday and Last 2 Weeks

Now
70 °F

Mild.


Feels Like: 70 °F
Forecast: 64 / 72 °F
Wind: 5 mph from North

Location: Mc Tavish

Current Time: Jun 29, 2016 at 5:47:11 PM

Latest Report: Jun 29, 2016 at 5:00 PM


Visibility: N/A

Pressure: 29.86 "Hg

Humidity: 73%

Dew Point: 61 °F

Location of LongueuilLocation

Past Weather in Longueuil — Graph

°F

Longueuil Temperature Yesterday

Maximum temperature yesterday: 79 °F (at 12:00 PM)
Minimum temperature yesterday: 67 °F (at 9:00 PM)
Average temperature yesterday: 72 °F

High & Low Weather Summary for the Past Weeks

 TemperatureHumidityPressure
High90 °F (Jun 20, 4:00 PM)95% (Jun 28, 9:00 PM)30.20 "Hg (Jun 28, 9:00 PM)
Low57 °F (Jun 22, 9:00 AM)22% (Jun 18, 3:00 PM)29.59 "Hg (Jun 20, 11:00 PM)
Average72 °F54%29.93 "Hg
* Reported Jun 14 4:00 PM — Jun 29 4:00 PM, Longueuil, Weather by CustomWeather, © 2016

Note: Actual official high and low records may vary slightly from our data, if they occured in-between our weather recording intervals... More about our weather records

Advertising

Longueuil Weather History for the Previous 24 Hours

Scroll right to see more
 ConditionsComfort  
Time TempWeatherWind HumidityBarometerVisibility
4:00 PM
Wed, Jun 29
71 °FMild.7 mph69%29.85 "HgN/A
3:00 PM71 °FMild.5 mph67%29.85 "HgN/A
2:00 PM69 °FMild.5 mph77%29.85 "HgN/A
1:00 PM71 °FMild.3 mph69%29.85 "HgN/A
12:00 PM70 °FMild.2 mph77%29.85 "HgN/A
11:00 AM67 °FMild.3 mph83%29.85 "HgN/A
10:00 AM69 °FMild.2 mph84%29.84 "HgN/A
9:00 AM66 °FMild.2 mph91%29.84 "HgN/A
8:00 AM66 °FMild.1 mph92%29.84 "HgN/A
7:00 AM65 °FMild.1 mph94%29.84 "HgN/A
6:00 AM64 °FMild.3 mph94%29.83 "HgN/A
5:00 AM64 °FMild.3 mph95%29.83 "HgN/A
4:00 AM64 °FMild.5 mph94%29.84 "HgN/A
3:00 AM64 °FMild.5 mph93%29.84 "HgN/A
2:00 AM65 °FMild.6 mph95%29.84 "HgN/A
1:00 AM66 °FMild.6 mph93%29.85 "HgN/A
12:00 AM67 °FMild.6 mph88%29.85 "HgN/A
11:00 PM
Tue, Jun 28
68 °FMild.1 mph95%29.86 "HgN/A
10:00 PM69 °FMild.1 mph92%29.88 "HgN/A
9:00 PM67 °FMild.2 mph95%29.87 "HgN/A
8:00 PM69 °FMild.6 mph90%29.83 "HgN/A
7:00 PM70 °FMild.2 mph92%29.87 "HgN/A
6:00 PM73 °FMild.3 mph81%29.86 "HgN/A
5:00 PM77 °FMild.2 mph75%29.83 "HgN/A
Weather by CustomWeather, © 2016

See weather overviewHow to use our weather pages